This demonstration page uses our WeatherBlox Daily Observations layout. Learn more.

Left ArrowRight Arrow

Hourly Observations for October 14, 2015

Temp ( °F °C ) Dew Point ( °F °C ) Humidity (%) Winds ( mph kmh ) Pressure ( in mb ) Visibility ( mi km ) Precip ( " mm )
12:53 am 00:53 Clear 40 4.4 35 1.7 83 83 WSW 7 11 30.07 1018 10 16 0.00 0.00
1:53 am 01:53 Clear 42 5.6 35 1.7 76 76 WSW 9 15 30.07 1018 10 16 0.00 0.00
2:53 am 02:53 Clear 38 3.3 33 0.6 83 83 WSW 7 11 30.08 1019 10 16 0.00 0.00
3:53 am 03:53 Clear 40 4.4 33 0.6 77 77 SW 8 13 30.08 1019 10 16 0.00 0.00
4:53 am 04:53 Clear 38 3.3 33 0.6 83 83 NNE 3 6 30.10 1019 10 16 0.00 0.00
5:53 am 05:53 Clear 38 3.3 31 -0.6 76 76 SW 7 11 30.13 1020 10 16 0.00 0.00
6:53 am 06:53 Clear 36 2.2 31 -0.6 82 82 SW 9 15 30.16 1021 10 16 0.00 0.00
7:53 am 07:53 Sunny 37 2.8 32 0 82 82 SW 10 17 30.17 1022 10 16 0.00 0.00
8:53 am 08:53 Sunny 42 5.6 35 1.7 76 76 W 7 11 30.20 1023 10 16 0.00 0.00
9:53 am 09:53 Sunny 48 8.9 32 0 54 54 W 8 13 30.21 1023 10 16 0.00 0.00
10:53 am 10:53 Sunny 51 10.6 32 0 48 48 W 8 13 30.21 1023 10 16 0.00 0.00
11:53 am 11:53 Sunny 52 11.1 32 0 47 47 W 5 7 30.21 1023 10 16 0.00 0.00
12:53 pm 12:53 Sunny 55 12.8 31 -0.6 40 40 N 5 7 30.19 1023 10 16 0.00 0.00
1:53 pm 13:53 Sunny 58 14.4 30 -1.1 35 35 E 3 6 30.17 1022 10 16 0.00 0.00
2:53 pm 14:53 Sunny 60 15.6 28 -2.2 30 30 Calm 30.16 1021 10 16 0.00 0.00
3:53 pm 15:53 Sunny 62 16.7 29 -1.7 29 29 VRB 3 6 30.14 1021 10 16 0.00 0.00
4:53 pm 16:53 Sunny 63 17.2 28 -2.2 27 27 NNW 5 7 30.13 1020 10 16 0.00 0.00
5:53 pm 17:53 Sunny 60 15.6 30 -1.1 32 32 ENE 3 6 30.13 1020 10 16 0.00 0.00
6:53 pm 18:53 Clear 49 9.4 34 1.1 56 56 ESE 6 9 30.15 1021 10 16 0.00 0.00
7:53 pm 19:53 Clear 43 6.1 34 1.1 71 71 SE 6 9 30.19 1022 10 16 0.00 0.00
8:53 pm 20:53 Clear 42 5.6 32 0 68 68 Calm 30.20 1023 10 16 0.00 0.00
9:53 pm 21:53 Clear 43 6.1 29 -1.7 58 58 Calm 30.22 1023 10 16 0.00 0.00
10:53 pm 22:53 Clear 35 1.7 29 -1.7 78 78 Calm 30.26 1025 10 16 0.00 0.00
11:53 pm 23:53 Clear 41 5 30 -1.1 65 65 NNE 13 20 30.30 1026 10 16 0.00 0.00

Powered by AerisWeather